Showing default

HIMAWARI 9, 41836

Orbit data source: Space-Track

HIMAWARI 9, 41836 is a payload satellite owned by JMA (JP) in GEO that was launched on Wed, 02 Nov 2016 UTC via an H-IIA 202 launch vehicle from the Tanegashima Space Center (TNSTA). Payload-class satellites include a variety of spacecraft equipped with specific instruments for various scientific and technological missions. These include communications satellites like Starlink; space stations such as the ISS; scientific satellites like the Hubble; Earth observation satellites from companies like Planet Labs, Umbra, and HawkEye 360; GPS; miniature CubeSats for education and research; and military/defense satellites.

Not visible in the next 10 days
Identifier
41836, 2016-064A
Orbit
GEO
Country
Flag of JPJP / JPN
Related business
Manufacturer
MELCO
Mission
Operational Civil Weather
Bus & Motor
DS-2000, R-4D
Mass
3,500 kg wet, 1,300 kg dry
Launch date (UTC)
2016-11-02 (10 years ago)
Launch vehicle
H-IIA 202
Launch site
Tanegashima Space Center (TNSTA)
Object type
Payload
Rocket body
Debris
Shape & HBR
Box + 1 Pan + 1 Rod, 15.0 m
Radar Cross Section
63.551 m², Large (>1 m²)

Expand to show TLE details & history
Last TLE update: 2 days ago

TLE from 2 days ago
0 HIMAWARI 9
1 41836U 16064A   26171.46088412  .00000000  00000-0  00000+0 0  9998
2 41836   0.0140 351.6731 0000932 111.3358 112.3453  1.00270283 35247
Epoch: 2026-06-20T11:03Z
TLE epoch observation values (Epoch: 2026-06-20T11:03:40.387Z)
Latitude
-0.02169°
Longitude
140.7828°
Altitude
35,788.017 km
Speed
3.075 km/s
True Right ascension
14h 21m 30s
True Declination
0° 01' 18"
Sunlit
Object was in daylight at epoch
Visualization orbit readout
Latitude
Unknown
Longitude
Unknown
Altitude
Unknown
Speed
Unknown
Apparent Right ascension
Unknown
Apparent Declination
Unknown
Sunlit
N/A
Visualization observer readout
Local Sidereal Time
21:38:55
Azimuth
Unknown
Elevation
Unknown
Doppler factor
Unknown
Orbital elements
Apogee altitude
35,792.016 km
Perigee altitude
35,784.157 km
Semi-major axis
42,166.223 km
Eccentricity
0.00009
Inclination
0.014°
RAAN
351.6731°
Arg. of periapsis
111.3358°
True anomaly
112.35518°
Mean anomaly
112.3453°
Eccentric anomaly
112.35024°
Mean motion
0.25067 °/min
Orbital period
1,436.17 mins
BSTAR
0
Loading maneuver chart data...
Computing Atmospheric mass density...
Loading historical data...
Loading historical data...
Loading historical data...
Loading historical data...
Loading historical data...
Loading historical data...
Loading historical data...
Other satellites on launch #64 in the year 2016 (2016-11-02 UTC)

Documentation

Showing up to 5 results
|